Regional Weather Roundup
Issued by NWS

Home | Current Version | Previous Version | Text Only | Print | Product List | Glossary On
Versions: 1 2 3 4 5 6 7 8 9 10 11 12 13 14 15 16 17 18 19 20 21 22 23 24 25 26 27 28 29 30 31 32 33 34 35 36 37 38 39 40 41 42 43 44 45 46 47 48 49 50
000
ASUS42 KFFC 171210
RWRGA
WEATHER ROUNDUP FOR GEORGIA
NATIONAL WEATHER SERVICE PEACHTREE CITY GA
700 AM EST SUN DEC 17 2017

NOTE: "FAIR" INDICATES FEW OR NO CLOUDS BELOW 12,000 FEET WITH NO
SIGNIFICANT WEATHER AND/OR OBSTRUCTIONS TO VISIBILITY.

* = USE WITH CAUTION. THE STATIONS MARKED WITH AN ASTERISK MAY NOT
REPORT WEATHER SUCH AS PRECIPITATION, FOG, OR THUNDER AND ARE NOT
QUALITY CONTROLLED BY NWS.

THE REMARK "TC" DENOTES TEMPERATURE READING IN DEGREES CELSIUS.

GAZ001>058-171300-
NORTH GEORGIA

CITY           SKY/WX    TMP DP  RH WIND       PRES   REMARKS
ATLANTA        CLOUDY    37  30  75 E5        30.21S WCI  33
6HR MIN TEMP:  36; 6HR MAX TEMP:  41;

ATHENS         CLOUDY    30  28  92 CALM      30.23S
6HR MIN TEMP:  28; 6HR MAX TEMP:  34;

CHAMBLEE       CLOUDY    31  29  92 CALM      30.21S
6HR MIN TEMP:  29; 6HR MAX TEMP:  31;

PEACHTREE CITY CLOUDY    31  29  92 CALM      30.23S
6HR MIN TEMP:  30; 6HR MAX TEMP:  31;

ROME           PTCLDY    32  30  92 CALM      30.21S
6HR MIN TEMP:  28; 6HR MAX TEMP:  32;

WEST ATLANTA   CLOUDY    30  29  96 CALM      30.22S
6HR MIN TEMP:  29; 6HR MAX TEMP:  31;

GAINESVILLE    CLOUDY    34  28  79 CALM      30.24R
6HR MIN TEMP:  32; 6HR MAX TEMP:  36;

CARTERSVILLE   PTCLDY    35  30  82 E6        30.22S WCI  30
6HR MIN TEMP:  27; 6HR MAX TEMP:  35;



CITY           SKY/WX    TMP DP  RH WIND       PRES   REMARKS
DALTON*        PTCLDY    28  28 100 CALM      30.23S
MARIETTA       MOCLDY    31  28  85 CALM      30.20S
KENNESAW*      CLOUDY    32  30  92 NE3       30.21F
CANTON*        PTCLDY    32  32 100 CALM      30.22S
$$

GAZ059>098-102>109-171300-
CENTRAL GEORGIA

CITY           SKY/WX    TMP DP  RH WIND       PRES   REMARKS
AUGUSTA-BUSH   CLOUDY    27  25  92 CALM      30.29R FOG
6HR MIN TEMP:  26; 6HR MAX TEMP:  28;

AUGUSTA-DANIEL CLOUDY    35  31  85 CALM      30.27S FOG
6HR MIN TEMP:  33; 6HR MAX TEMP:  39;

COLUMBUS       CLOUDY    41  29  62 E6        30.23R
6HR MIN TEMP:  36; 6HR MAX TEMP:  41;

MACON          CLOUDY    32  31  96 CALM      30.26R
6HR MIN TEMP:  30; 6HR MAX TEMP:  32;

ROBINS AFB     CLOUDY    33  31  94 CALM      30.26R


CITY           SKY/WX    TMP DP  RH WIND       PRES   REMARKS
LAGRANGE*      CLOUDY    33  33  99 CALM      30.21S
SYLVANIA*      CLOUDY    33  33 100 CALM      30.29R FOG
MILLEDGEVILLE* FOG       34  34 100 CALM      30.26R VSB 1/2
$$

GAZ099>101-110>166-171300-
SOUTH GEORGIA

CITY           SKY/WX    TMP DP  RH WIND       PRES   REMARKS
SAVANNAH       CLOUDY    36  34  92 CALM      30.30S
6HR MIN TEMP:  33; 6HR MAX TEMP:  37;

VALDOSTA       CLOUDY    42  39  89 CALM      30.27R
6HR MIN TEMP:  40; 6HR MAX TEMP:  47;

ALMA           PTCLDY    38  36  92 CALM      30.27R
6HR MIN TEMP:  36; 6HR MAX TEMP:  38;

ST SIMONS      MOCLDY    48  45  89 CALM      30.28R
6HR MIN TEMP:  42; 6HR MAX TEMP:  51;

FT STEWART     CLOUDY    35  33  93 CALM        N/A
ALBANY         CLOUDY    38  36  92 CALM      30.28R
HUNTER AFB     CLOUDY    37  35  91 CALM      30.27F
MOODY AFB      CLOUDY    44  38  81 CALM      30.25R
BRUNSWICK      MOCLDY    41  39  93 CALM      30.29R


CITY           SKY/WX    TMP DP  RH WIND       PRES   REMARKS
BAINBRIDGE*    CLOUDY    45  41  87 CALM      30.27R
MOULTRIE*      CLOUDY    45  37  76 CALM      30.27R
VIDALIA*       CLOUDY    37  36  93 CALM      30.28S
WAYCROSS*      PTCLDY    40  37  91 CALM      30.28R
DOUGLAS*       CLOUDY    39  37  93 CALM      30.29R
$$




USA.gov is the U.S. government's official web portal to all federal, state and local government web resources and services.